Fosston, MN

7:07 PM CDT on August 24, 2016 (GMT -0500)
Fosston Municipal

Weather History for KFSE - May, 2012

Change the Weather History Date:

Wednesday, May 16, 2012

  Actual Average Record
Temperature  
Mean Temperature 52 °F -  
Max Temperature 73 °F 68 °F 85 °F (1949)
Min Temperature 30 °F 41 °F 22 °F (1983)
Degree Days  
Heating Degree Days 14    
Growing Degree Days 2 (Base 50)    
Moisture  
Dew Point 28 °F    
Average Humidity 42    
Maximum Humidity 80    
Minimum Humidity 19    
Precipitation  
Precipitation 0.00 in - - ()
Sea Level Pressure  
Sea Level Pressure 30.07 in    
Wind  
Wind Speed 2 mph (SE)    
Max Wind Speed 10 mph    
Max Gust Speed 16 mph    
Visibility 10 miles    
Events      
Averages and records for this station are not official NWS values.
T = Trace of Precipitation, MM = Missing Value Source: NWS Daily Summary

Daily Weather History Graph

Daily Weather History Graph

Search for Another Location

Airport or City:

Trip Planner

Search our weather history database for the weather conditions in past years. The results will help you decide how hot, cold, wet, or windy it might be!

Date:

Astronomy

May. 16, 2012 Rise Set
Actual Time 5:43 AM CDT 8:55 PM CDT
Civil Twilight 5:07 AM CDT 9:32 PM CDT
Nautical Twilight 4:19 AM CDT 10:21 PM CDT
Astronomical Twilight 3:19 AM CDT 11:22 PM CDT
Moon 3:29 AM CDT (5/16) 4:59 PM CDT (5/16)
Length of Visible Light 16h 25m
Length of Day
15h 11m
Waning Crescent, 16% of the Moon is Illuminated
May 16
Waning Crescent
May 20
New
May 28
First Quarter
Jun 4
Full
Jun 11
Last Quarter

Hourly Weather History & Observations

Time (CDT) Temp. Dew Point Humidity Pressure Visibility Wind Dir Wind Speed Gust Speed Precip Events Conditions
12:15 AM 39.2 °F 28.4 °F 65% 30.12 in 10.0 mi Calm Calm - N/A   Clear
12:35 AM 39.2 °F 28.4 °F 65% 30.13 in 10.0 mi Calm Calm - N/A   Clear
12:55 AM 41.0 °F 26.6 °F 57% 30.13 in 10.0 mi Calm Calm - N/A   Clear
1:15 AM 42.8 °F 26.6 °F 53% 30.13 in 10.0 mi Calm Calm - N/A   Clear
1:35 AM 39.2 °F 26.6 °F 61% 30.14 in 10.0 mi Calm Calm - N/A   Clear
1:55 AM 39.2 °F 28.4 °F 65% 30.14 in 10.0 mi Calm Calm - N/A   Clear
2:15 AM 37.4 °F 28.4 °F 70% 30.14 in 10.0 mi Calm Calm - N/A   Clear
2:35 AM 37.4 °F 28.4 °F 70% 30.14 in 10.0 mi Calm Calm - N/A   Clear
2:55 AM 37.4 °F 26.6 °F 65% 30.14 in 10.0 mi Calm Calm - N/A   Clear
3:15 AM 37.4 °F 26.6 °F 65% 30.15 in 10.0 mi Calm Calm - N/A   Clear
3:35 AM 35.6 °F 26.6 °F 70% 30.15 in 10.0 mi Calm Calm - N/A   Clear
3:55 AM 35.6 °F 26.6 °F 70% 30.15 in 10.0 mi Calm Calm - N/A   Clear
4:15 AM 33.8 °F 24.8 °F 70% 30.15 in 10.0 mi Calm Calm - N/A   Clear
4:35 AM 32.0 °F 21.2 °F 64% 30.15 in 10.0 mi Calm Calm - N/A   Clear
4:55 AM 30.2 °F 24.8 °F 80% 30.16 in 10.0 mi Calm Calm - N/A   Clear
5:15 AM 30.2 °F 24.8 °F 80% 30.16 in 10.0 mi Calm Calm - N/A   Clear
5:34 AM 30.2 °F 19.4 °F 64% 30.16 in 10.0 mi Calm Calm - N/A   Clear
5:55 AM 30.2 °F 19.4 °F 64% 30.16 in 10.0 mi Calm Calm - N/A   Clear
6:15 AM 33.8 °F 21.2 °F 60% 30.16 in 10.0 mi Calm Calm - N/A   Clear
6:34 AM 33.8 °F 24.8 °F 70% 30.16 in 10.0 mi Calm Calm - N/A   Clear
6:55 AM 37.4 °F 28.4 °F 70% 30.17 in 10.0 mi Calm Calm - N/A   Clear
7:15 AM 39.2 °F 32.0 °F 75% 30.17 in 10.0 mi Calm Calm - N/A   Clear
7:34 AM 42.8 °F 32.0 °F 66% 30.17 in 10.0 mi Calm Calm - N/A   Clear
7:55 AM 44.6 °F 30.2 °F 57% 30.17 in 10.0 mi Calm Calm - N/A   Clear
8:15 AM 48.2 °F 30.2 °F 50% 30.17 in 10.0 mi Calm Calm - N/A   Clear
8:34 AM 48.2 °F 26.6 °F 43% 30.17 in 10.0 mi Calm Calm - N/A   Clear
8:55 AM 50.0 °F 24.8 °F 37% 30.17 in 10.0 mi Calm Calm - N/A   Clear
9:15 AM 51.8 °F 26.6 °F 38% 30.16 in 10.0 mi Calm Calm - N/A   Clear
9:34 AM 53.6 °F 37.4 °F 54% 30.16 in 10.0 mi Calm Calm - N/A   Clear
9:55 AM 55.4 °F 26.6 °F 33% 30.16 in 10.0 mi Calm Calm - N/A   Clear
10:15 AM 57.2 °F 33.8 °F 41% 30.15 in 10.0 mi Calm Calm - N/A   Clear
10:34 AM 59.0 °F 26.6 °F 29% 30.15 in 10.0 mi Calm Calm - N/A   Clear
10:55 AM 59.0 °F 26.6 °F 29% 30.14 in 10.0 mi Calm Calm - N/A   Clear
11:15 AM 59.0 °F 23.0 °F 25% 30.14 in 10.0 mi Calm Calm - N/A   Clear
11:34 AM 60.8 °F 24.8 °F 25% 30.13 in 10.0 mi Calm Calm - N/A   Clear
11:55 AM 60.8 °F 26.6 °F 27% 30.12 in 10.0 mi Calm Calm - N/A   Clear
12:15 PM 62.6 °F 26.6 °F 26% 30.11 in 10.0 mi Calm Calm - N/A   Clear
12:35 PM 64.4 °F 30.2 °F 28% 30.10 in 10.0 mi NNE 3.5 mph - N/A   Clear
12:55 PM 64.4 °F 28.4 °F 26% 30.09 in 10.0 mi Calm Calm - N/A   Clear
1:15 PM 64.4 °F 30.2 °F 28% 30.09 in 10.0 mi Calm Calm - N/A   Clear
1:35 PM 66.2 °F 30.2 °F 26% 30.08 in 10.0 mi ESE 3.5 mph - N/A   Clear
1:55 PM 66.2 °F 28.4 °F 24% 30.07 in 10.0 mi ESE 3.5 mph - N/A   Clear
2:15 PM 68.0 °F 30.2 °F 24% 30.06 in 10.0 mi Calm Calm - N/A   Clear
2:35 PM 68.0 °F 28.4 °F 23% 30.05 in 10.0 mi SE 5.8 mph - N/A   Clear
2:55 PM 69.8 °F 28.4 °F 21% 30.03 in 10.0 mi SSE 8.1 mph - N/A   Clear
3:15 PM 69.8 °F 28.4 °F 21% 30.03 in 10.0 mi SE 3.5 mph - N/A   Clear
3:34 PM 69.8 °F 28.4 °F 21% 30.02 in 10.0 mi Calm Calm - N/A   Clear
3:55 PM 69.8 °F 26.6 °F 20% 30.01 in 10.0 mi WSW 4.6 mph - N/A   Clear
4:15 PM 71.6 °F 28.4 °F 20% 30.00 in 10.0 mi Calm Calm - N/A   Clear
4:34 PM 71.6 °F 28.4 °F 20% 29.99 in 10.0 mi SE 8.1 mph - N/A   Clear
4:55 PM 73.4 °F 28.4 °F 19% 29.98 in 10.0 mi South 8.1 mph - N/A   Clear
5:34 PM 73.4 °F 28.4 °F 19% 29.97 in 10.0 mi South 6.9 mph - N/A   Clear
5:55 PM 73.4 °F 28.4 °F 19% 29.95 in 10.0 mi South 6.9 mph - N/A   Clear
6:34 PM 73.4 °F 28.4 °F 19% 29.94 in 10.0 mi SE 6.9 mph - N/A   Clear
6:55 PM 71.6 °F 28.4 °F 20% 29.94 in 10.0 mi South 10.4 mph - N/A   Clear
7:15 PM 71.6 °F 28.4 °F 20% 29.94 in 10.0 mi SE 8.1 mph - N/A   Clear
7:35 PM 69.8 °F 28.4 °F 21% 29.93 in 10.0 mi SSE 9.2 mph - N/A   Clear
7:54 PM 69.8 °F 30.2 °F 23% 29.93 in 10.0 mi SSE 8.1 mph - N/A   Clear
8:15 PM 66.2 °F 32.0 °F 28% 29.93 in 10.0 mi SSE 6.9 mph - N/A   Clear
8:35 PM 62.6 °F 32.0 °F 32% 29.94 in 10.0 mi SSE 6.9 mph - N/A   Clear
9:15 PM 60.8 °F 28.4 °F 29% 29.93 in 10.0 mi SE 4.6 mph - N/A   Clear
9:35 PM 60.8 °F 30.2 °F 31% 29.93 in 10.0 mi SE 8.1 mph - N/A   Clear
9:55 PM 59.0 °F 30.2 °F 34% 29.93 in 10.0 mi ESE 6.9 mph - N/A   Clear
10:15 PM 59.0 °F 30.2 °F 34% 29.92 in 10.0 mi SE 8.1 mph - N/A   Clear
10:35 PM 57.2 °F 30.2 °F 36% 29.92 in 10.0 mi ESE 6.9 mph - N/A   Clear
10:55 PM 57.2 °F 30.2 °F 36% 29.92 in 10.0 mi SE 6.9 mph - N/A   Clear
11:15 PM 57.2 °F 30.2 °F 36% 29.91 in 10.0 mi SE 9.2 mph - N/A   Clear
11:35 PM 57.2 °F 30.2 °F 36% 29.90 in 10.0 mi SE 10.4 mph - N/A   Clear
11:55 PM 57.2 °F 30.2 °F 36% 29.90 in 10.0 mi SE 9.2 mph 16.1 mph N/A   Clear